Regional Weather Roundup
Issued by NWS

Home | Current Version | Previous Version | Graphics & Text | Print | Product List | Glossary On
Versions: 1 2 3 4 5 6 7 8 9 10 11 12 13 14 15 16 17 18 19 20 21 22 23 24 25 26 27 28 29 30 31 32 33 34 35 36 37 38 39 40 41 42 43 44 45 46 47 48
000
ASUS45 KSLC 250010
RWRUT

UTAH REGIONAL WEATHER ROUNDUP
NATIONAL WEATHER SERVICE SALT LAKE CITY UT
500 PM MST WED DEC 24 2014

UTZ001>011-023>025-250100-

NORTHERN UTAH

CITY           SKY/WX    TMP DP  RH WIND       PRES   REMARKS
BRIGHAM CITY   CLOUDY    37  22  54 CALM      29.68F
HILL AFB       CLOUDY    37  20  50 W3        29.66F
LOGAN          CLOUDY    33  25  72 CALM      29.67F
OGDEN          CLOUDY    37  20  50 NW3       29.66F
PROVO AIRPORT  NOT AVBL
SALT LAKE CITY CLOUDY    42  22  44 S9        29.66F
VERNAL         MOCLDY    29  14  53 CALM      29.84F
WENDOVER       CLOUDY    34  19  55 CALM      29.66F
HEBER CITY     CLOUDY    36  23  60 CALM      29.72F
WEST JORDAN    MOCLDY    39  25  56 S20       29.68F WCI  30

$$

UTZ012>022-026-027-250100-

SOUTHERN/CENTRAL UTAH

CITY           SKY/WX    TMP DP  RH WIND       PRES   REMARKS
BLANDING       CLOUDY    32  15  49 SE3       30.01F
BRYCE CANYON   CLOUDY    30  16  56 SE5       29.90F WCI  25
CEDAR CITY     CLOUDY    37  14  38 SW18G29   29.81F WCI  27
DELTA          CLOUDY    42  22  46 S15G21    29.72F
MILFORD        CLOUDY    44  21  40 S23       29.77F
MOAB/CYNLANDS  CLEAR     33  19  56 E6        29.90F WCI  28
PRICE          CLOUDY    30  11  45 E3        29.88F
ST GEORGE      CLOUDY    45  16  31 CALM      29.92F
KANAB          CLOUDY    39  19  45 N3        29.95F

$$

REGIONAL REPORTS     COLORADO/ARIZONA

CITY           SKY/WX    TMP DP  RH WIND       PRES   REMARKS
CRAIG, CO      CLOUDY    27  12  53 E7        29.81F WCI  19
GRAND JUNCTION CLOUDY    29  23  78 CALM      29.92F
RIFLE          CLOUDY    29  13  51 CALM      29.92F
MONTROSE       CLOUDY    31  15  52 N5        29.92F WCI  26
CORTEZ         CLEAR     32  15  49 CALM      29.97F
PAGE, AZ       CLOUDY    41  14  33 NE3       29.92F
GRAND CANYON   CLOUDY    41  17  38 SW6       29.97F
KINGMAN        CLOUDY    50  13  22 SW10      29.94F
FLAGSTAFF      MOCLDY    39  15  37 SW10      29.99F WCI  32

$$

REGIONAL REPORTS    NEVADA/IDAHO/WYOMING

CITY           SKY/WX    TMP DP  RH WIND       PRES   REMARKS
LAS VEGAS, NV  CLOUDY    50  17  27 SE5       29.85F
ELY            CLOUDY    40  24  53 S16G29    29.71F WCI  31
ELKO           CLOUDY    43  29  57 W8        29.54F
POCATELLO, ID  PTCLDY    36  26  67 CALM      29.56F
EVANSTON, WY   CLOUDY    34  23  64 SW16      29.66F WCI  24
ROCK SPRINGS   CLOUDY    29  18  63 S12       29.67F WCI  19
KEMMERER       CLOUDY    28  21  74 CALM      29.66F

$$



USA.gov is the U.S. government's official web portal to all federal, state and local government web resources and services.